Victoria, TX

11:46 PM CST on December 13, 2019 (GMT -0600)
Victoria Regional

Weather History for KVCT - October, 2019

Change the Weather History Date:

Friday, October 11, 2019

  Actual Average Record
Temperature  
Mean Temperature 66 °F 74 °F  
Max Temperature 79 °F 85 °F 109 °F (1926)
Min Temperature 54 °F 62 °F 45 °F (1909)
Degree Days  
Heating Degree Days 0 0  
Month to date heating degree days 0 0  
Since 1 July heating degree days 0 1  
Cooling Degree Days 2 9  
Month to date cooling degree days 171 109  
Year to date cooling degree days 3436 2907  
Growing Degree Days 16 (Base 50)    
Moisture  
Dew Point 58 °F    
Average Humidity 80    
Maximum Humidity 94    
Minimum Humidity 57    
Precipitation  
Precipitation 0.36 in 0.15 in 3.20 in (1997)
Month to date precipitation 0.40 1.58  
Year to date precipitation 19.76 32.61  
Snow  
Snow 0.00 in 0.00 in 0.00 in (2002)
Month to date snowfall 0.0 0.0  
Since 1 July snowfall 0.0 0.0  
Since 1 September snowfall 0.0 0.0  
Snow Depth 0.00 in    
Sea Level Pressure  
Sea Level Pressure 30.03 in    
Wind  
Wind Speed 11 mph ()    
Max Wind Speed 30 mph    
Max Gust Speed 38 mph    
Visibility 8.2 miles    
Events Rain    
T = Trace of Precipitation, MM = Missing Value Source: Averaged Metar Reports

Daily Weather History Graph

Daily Weather History Graph

Search for Another Location

Airport or City:

Astronomy

Oct. 11, 2019 Rise Set
Actual Time 7:26 AM CDT 7:02 PM CDT
Civil Twilight 7:02 AM CDT 7:25 PM CDT
Nautical Twilight 6:35 AM CDT 7:53 PM CDT
Astronomical Twilight 6:07 AM CDT 8:20 PM CDT
Moon 6:17 PM CDT (10/11) 5:25 AM CDT (10/11)
Length of Visible Light 12h 23m
Length of Day
11h 36m
Waxing Gibbous, 96% of the Moon is Illuminated
Oct 11
Waxing Gibbous
Oct 13
Full
Oct 21
Last Quarter
Oct 27
New
Nov 4
First Quarter

Hourly Weather History & Observations

Time (CDT) Temp. Dew Point Humidity Pressure Visibility Wind Dir Wind Speed Gust Speed Precip Events Conditions
12:51 AM 79.0 °F 75.0 °F 88% 29.83 in 10.0 mi SSE 6.9 mph - N/A   Clear
1:51 AM 77.0 °F 73.9 °F 90% 29.84 in 9.0 mi SE 6.9 mph - N/A   Partly Cloudy
2:51 AM 77.0 °F 73.9 °F 90% 29.85 in 9.0 mi ESE 5.8 mph - N/A   Partly Cloudy
3:51 AM 77.0 °F 73.9 °F 90% 29.84 in 9.0 mi SSE 6.9 mph - N/A   Clear
4:51 AM 77.0 °F 73.9 °F 90% 29.85 in 8.0 mi SE 4.6 mph - N/A   Clear
5:51 AM 75.0 °F 73.0 °F 94% 29.86 in 8.0 mi SSE 3.5 mph - N/A   Clear
6:51 AM 73.9 °F 72.0 °F 93% 29.87 in 6.0 mi NNE 3.5 mph - N/A   Scattered Clouds
7:51 AM 77.0 °F 75.0 °F 94% 29.93 in 8.0 mi North 8.1 mph - N/A   Scattered Clouds
7:58 AM 77.0 °F 75.0 °F 94% 29.94 in 8.0 mi NNE 5.8 mph - N/A   Overcast
8:08 AM 77.0 °F 75.0 °F 94% 29.95 in 7.0 mi North 9.2 mph - N/A   Overcast
8:19 AM 77.0 °F 75.0 °F 94% 29.95 in 4.0 mi NE 6.9 mph - 0.00 in Rain Light Rain
8:22 AM 75.0 °F 73.0 °F 94% 29.95 in 1.8 mi North - - 0.00 in Rain Heavy Rain
8:29 AM 66.0 °F 64.0 °F 93% 29.97 in 6.0 mi NNW 26.5 mph 33.4 mph 0.09 in Rain Rain
8:51 AM 62.1 °F 60.1 °F 93% 29.99 in 6.0 mi NNW 25.3 mph 32.2 mph 0.16 in Rain Heavy Rain
8:53 AM 62.1 °F 60.1 °F 93% 30.00 in 3.0 mi NNW 25.3 mph 33.4 mph 0.03 in Rain Heavy Rain
9:04 AM 61.0 °F 59.0 °F 93% 30.01 in 3.0 mi NNW 13.8 mph 28.8 mph 0.20 in Rain Light Rain
9:51 AM 60.1 °F 55.9 °F 86% 30.03 in 3.0 mi North 24.2 mph 34.5 mph 0.20 in   Mostly Cloudy
10:18 AM 60.1 °F 55.9 °F 86% 30.07 in 10.0 mi North 23.0 mph 27.6 mph N/A   Overcast
10:51 AM 60.1 °F 55.0 °F 83% 30.09 in 10.0 mi North 17.3 mph 27.6 mph N/A   Overcast
11:12 AM 61.0 °F 53.1 °F 75% 30.10 in 10.0 mi North 20.7 mph 32.2 mph N/A   Overcast
11:51 AM 59.0 °F 51.1 °F 75% 30.11 in 10.0 mi North 24.2 mph 38.0 mph N/A   Overcast
12:51 PM 59.0 °F 48.9 °F 69% 30.11 in 10.0 mi North 21.9 mph 34.5 mph N/A   Overcast
1:51 PM 60.1 °F 48.9 °F 67% 30.11 in 10.0 mi North 20.7 mph 29.9 mph N/A   Overcast
2:51 PM 59.0 °F 48.0 °F 67% 30.09 in 10.0 mi North 21.9 mph 38.0 mph N/A   Overcast
3:29 PM 61.0 °F 48.0 °F 62% 30.10 in 10.0 mi North 21.9 mph 34.5 mph N/A   Overcast
3:51 PM 59.0 °F 46.9 °F 64% 30.10 in 10.0 mi North 25.3 mph 34.5 mph N/A   Overcast
4:51 PM 55.9 °F 46.0 °F 69% 30.12 in 10.0 mi North 17.3 mph 29.9 mph N/A   Overcast
5:51 PM 54.0 °F 44.1 °F 69% 30.14 in 10.0 mi North 21.9 mph 31.1 mph N/A   Overcast
6:51 PM 55.0 °F 42.1 °F 62% 30.14 in 10.0 mi North 20.7 mph 29.9 mph N/A   Overcast
7:51 PM 55.0 °F 41.0 °F 59% 30.16 in 10.0 mi North 13.8 mph - N/A   Overcast
8:51 PM 55.9 °F 42.1 °F 60% 30.19 in 10.0 mi North 12.7 mph - N/A   Overcast
9:51 PM 57.0 °F 43.0 °F 59% 30.20 in 10.0 mi North 12.7 mph - N/A   Overcast
10:51 PM 57.9 °F 43.0 °F 58% 30.21 in 10.0 mi North 10.4 mph - N/A   Overcast
11:51 PM 57.9 °F 43.0 °F 58% 30.20 in 10.0 mi North 12.7 mph - N/A   Overcast